Las Vegas, NV

1:46 AM PDT on August 19, 2017 (GMT -0700)
McCarran International

Weather History for KLAS - March, 2013

Change the Weather History Date:

Tuesday, March 26, 2013

  Actual Average Record
Temperature  
Mean Temperature 69 °F 62 °F  
Max Temperature 80 °F 73 °F 87 °F (1947)
Min Temperature 58 °F 51 °F 34 °F (1948)
Degree Days  
Heating Degree Days 0 5  
Month to date heating degree days 86 169  
Since 1 July heating degree days 1723 1860  
Cooling Degree Days 4 1  
Month to date cooling degree days 59 18  
Year to date cooling degree days 59 19  
Growing Degree Days 18 (Base 50)    
Moisture  
Dew Point 19 °F    
Average Humidity 15    
Maximum Humidity 22    
Minimum Humidity 7    
Precipitation  
Precipitation 0.00 in 0.00 in 0.13 in (1998)
Month to date precipitation 0.15 0.39  
Year to date precipitation 0.58 1.69  
Snow  
Snow 0.00 in 0.00 in 0.00 in (2015)
Month to date snowfall 0.0 0.0  
Since 1 July snowfall T 0.3  
Snow Depth 0.00 in    
Sea Level Pressure  
Sea Level Pressure 29.74 in    
Wind  
Wind Speed 10 mph (SSW)    
Max Wind Speed 21 mph    
Max Gust Speed 29 mph    
Visibility 10 miles    
Events      
T = Trace of Precipitation, MM = Missing Value Source: NWS Daily Summary

Daily Weather History Graph

Daily Weather History Graph

Search for Another Location

Airport or City:

Trip Planner

Search our weather history database for the weather conditions in past years. The results will help you decide how hot, cold, wet, or windy it might be!

Date:

Astronomy

Mar. 26, 2013 Rise Set
Actual Time 6:35 AM PDT 6:57 PM PDT
Civil Twilight 6:09 AM PDT 7:23 PM PDT
Nautical Twilight 5:39 AM PDT 7:53 PM PDT
Astronomical Twilight 5:08 AM PDT 8:24 PM PDT
Moon 6:38 PM PDT (3/26) 5:53 AM PDT (3/26)
Length of Visible Light 13h 14m
Length of Day
12h 22m
Full, 100% of the Moon is Illuminated
Mar 26
Full
Mar 27
Full
Apr 2
Last Quarter
Apr 10
New
Apr 18
First Quarter

Hourly Weather History & Observations

Time (PDT) Temp. Dew Point Humidity Pressure Visibility Wind Dir Wind Speed Gust Speed Precip Events Conditions
12:56 AM 62.1 °F 17.1 °F 18% 29.81 in 10.0 mi SW 5.8 mph - N/A   Overcast
1:56 AM 60.1 °F 16.0 °F 18% 29.79 in 10.0 mi SSW 10.4 mph - N/A   Overcast
2:56 AM 59.0 °F 18.0 °F 20% 29.78 in 10.0 mi South 5.8 mph - N/A   Overcast
3:56 AM 59.0 °F 17.1 °F 20% 29.76 in 10.0 mi SSW 8.1 mph - N/A   Overcast
4:56 AM 60.1 °F 18.0 °F 20% 29.76 in 10.0 mi Calm Calm - N/A   Mostly Cloudy
5:56 AM 60.1 °F 19.0 °F 20% 29.76 in 10.0 mi South 5.8 mph - N/A   Mostly Cloudy
6:56 AM 64.9 °F 19.9 °F 18% 29.76 in 10.0 mi South 6.9 mph - N/A   Mostly Cloudy
7:56 AM 66.0 °F 23.0 °F 20% 29.78 in 10.0 mi South 9.2 mph - N/A   Mostly Cloudy
8:56 AM 64.9 °F 24.1 °F 21% 29.79 in 10.0 mi South 4.6 mph - N/A   Mostly Cloudy
9:56 AM 68.0 °F 26.1 °F 21% 29.79 in 10.0 mi South 4.6 mph - N/A   Mostly Cloudy
10:56 AM 66.9 °F 23.0 °F 19% 29.79 in 10.0 mi SW 8.1 mph - N/A   Overcast
11:56 AM 73.9 °F 14.0 °F 10% 29.78 in 10.0 mi SSW 10.4 mph - N/A   Mostly Cloudy
12:56 PM 75.9 °F 12.0 °F 9% 29.75 in 10.0 mi SSW 11.5 mph 21.9 mph N/A   Mostly Cloudy
1:56 PM 77.0 °F 10.0 °F 8% 29.73 in 10.0 mi SSW 17.3 mph - N/A   Mostly Cloudy
2:56 PM 78.1 °F 12.0 °F 8% 29.72 in 10.0 mi SSW 15.0 mph - N/A   Mostly Cloudy
3:56 PM 78.1 °F 10.9 °F 8% 29.69 in 10.0 mi WSW 9.2 mph - N/A   Mostly Cloudy
4:56 PM 79.0 °F 15.1 °F 9% 29.68 in 10.0 mi SSW 15.0 mph 23.0 mph N/A   Mostly Cloudy
5:56 PM 78.1 °F 15.1 °F 9% 29.67 in 10.0 mi SW 18.4 mph 27.6 mph N/A   Scattered Clouds
6:56 PM 77.0 °F 17.1 °F 10% 29.66 in 10.0 mi SSW 11.5 mph - N/A   Scattered Clouds
7:56 PM 73.0 °F 19.9 °F 14% 29.68 in 10.0 mi SSW 9.2 mph - N/A   Scattered Clouds
8:56 PM 72.0 °F 21.9 °F 15% 29.69 in 10.0 mi SSW 11.5 mph - N/A   Partly Cloudy
9:56 PM 70.0 °F 24.1 °F 18% 29.72 in 10.0 mi SW 10.4 mph - N/A   Partly Cloudy
10:56 PM 68.0 °F 27.0 °F 21% 29.73 in 10.0 mi South 11.5 mph - N/A   Partly Cloudy
11:56 PM 68.0 °F 28.9 °F 23% 29.74 in 10.0 mi SSW 9.2 mph - N/A   Partly Cloudy